Theta_e
324 324 325 326 326 327 328 329 328 329 329 330 331 331 331 331 331 331 332 332 332 333 333 333 334 334 334 334 334 334 334 334 334 334 334 335 336 336 336 336 335 332 332 333 332 332 332 333 335 335 336 336 335 335 337 340 341 341 341 340 339 340 341 341 341 340 338 338 338 337 336 336 336 336 335 336 336 334 334 334 334 334 334 332 329
322 323 323 324 325 326 326 327 327 327 327 328 329 329 329 330 330 330 331 331 332 332 332 332 333 333 333 333 333 334 334 334 334 334 334 334 335 336 336 337 336 334 332 332 332 332 332 333 334 335 335 335 334 335 339 341 341 341 340 339 339 340 340 339 339 338 336 335 335 335 335 335 334 335 335 336 335 333 332 332 331 333 334 330 326
320 320 321 322 323 324 324 324 325 326 326 327 328 328 328 329 329 329 330 330 330 331 331 332 332 332 333 332 333 333 334 334 334 334 333 333 334 335 336 336 336 335 333 331 332 332 332 332 333 333 334 334 334 335 340 341 341 341 339 337 336 338 339 339 337 335 334 335 336 335 334 334 334 334 335 334 333 331 331 330 327 329 332 330 326
319 319 320 321 322 323 323 323 324 324 324 325 326 326 327 327 328 328 328 329 329 329 329 330 330 331 332 332 333 333 333 333 333 333 333 333 333 333 334 335 335 335 334 333 333 332 331 332 333 333 333 333 333 335 340 341 340 340 340 337 337 338 339 339 337 336 336 337 336 334 334 334 334 334 334 332 331 329 329 328 325 325 328 328 326
319 319 319 320 321 321 321 322 322 323 323 324 324 325 326 326 326 327 327 327 327 327 327 327 328 329 329 330 331 332 332 332 332 332 332 333 333 333 333 334 334 334 334 334 333 333 332 331 332 332 332 334 335 337 341 341 338 339 340 338 338 338 338 338 337 337 337 336 335 333 333 333 333 333 333 331 329 328 326 325 324 324 325 324 325
318 318 319 319 319 320 320 321 321 322 322 323 323 324 325 325 325 326 326 325 325 325 325 325 325 326 326 327 328 329 330 331 332 332 331 332 332 332 333 334 334 334 334 334 333 333 332 331 331 332 332 334 336 336 337 337 336 337 339 338 337 338 338 337 337 336 336 335 333 332 332 333 333 332 331 329 328 326 324 324 323 323 323 321 322
318 318 319 319 319 319 320 320 321 322 322 323 323 324 324 324 324 324 324 324 323 323 323 323 323 324 324 324 324 324 326 328 330 331 331 332 331 331 332 332 333 334 334 334 333 333 332 332 332 332 332 332 334 333 332 332 335 337 337 337 336 336 336 336 335 335 334 333 332 332 332 332 332 331 329 327 325 323 322 322 322 323 322 321 322
318 318 318 318 318 318 319 320 321 321 322 322 323 323 323 323 323 323 323 322 322 322 322 322 322 322 322 321 320 320 321 323 326 329 330 331 332 332 331 329 330 332 333 333 333 332 333 333 332 332 332 332 332 333 333 334 334 336 337 336 336 336 335 334 333 332 332 332 331 332 332 331 331 330 327 325 323 321 321 321 321 321 321 322 322
318 318 318 318 318 318 318 319 320 321 321 321 321 321 321 321 321 321 321 321 321 321 320 320 320 320 319 318 317 317 317 318 320 323 325 328 330 332 332 331 331 332 332 333 333 332 332 332 332 333 333 332 332 334 336 336 335 335 337 336 335 335 334 333 332 331 331 332 332 332 330 329 329 327 324 322 321 321 321 319 320 320 320 321 320
318 318 317 317 317 317 318 318 319 320 320 320 320 320 320 320 319 319 319 320 320 320 319 319 319 319 318 316 315 314 315 315 317 319 321 323 326 329 331 332 333 334 333 333 333 331 330 331 332 332 333 334 335 336 337 338 337 336 336 335 334 334 333 332 332 331 331 331 331 331 329 327 326 324 322 321 320 320 319 318 319 319 319 320 320
317 317 317 317 316 317 317 317 318 318 318 318 318 318 318 317 317 317 317 319 320 319 318 318 318 317 317 316 314 314 314 315 316 318 320 322 323 326 328 331 333 334 332 333 332 330 330 331 332 332 332 334 336 336 336 336 336 335 335 334 334 334 332 331 332 331 331 330 328 327 327 325 323 322 321 320 319 319 318 317 319 319 318 319 320
317 316 316 316 316 316 316 317 317 317 317 316 316 316 315 315 315 315 315 317 318 318 318 318 318 317 316 315 314 313 314 315 316 317 319 321 322 325 326 329 332 332 331 332 331 329 329 330 330 331 333 334 334 334 334 333 332 331 330 329 329 330 329 329 329 329 329 328 326 324 324 322 321 320 319 318 318 318 317 317 318 317 317 317 318
316 316 315 315 315 316 316 316 316 316 316 315 315 315 314 314 313 314 315 316 317 317 318 318 317 315 315 315 314 313 313 314 315 316 318 320 322 324 325 327 330 331 332 332 330 328 328 327 326 328 330 332 332 332 332 329 326 324 324 324 324 324 324 325 325 326 326 326 324 322 321 320 318 317 317 316 317 318 317 316 316 315 316 317 318
315 315 315 314 315 315 315 315 315 315 315 314 314 313 313 313 313 313 314 315 315 317 317 317 316 314 314 314 313 312 312 313 314 315 317 319 321 324 326 327 329 331 332 330 328 327 326 325 325 326 326 327 328 327 325 324 322 321 321 321 320 320 321 322 322 323 323 324 323 321 320 320 318 316 316 316 317 318 317 315 314 314 314 315 317
315 314 314 314 315 315 315 315 314 314 313 313 313 313 313 313 313 313 314 314 316 316 315 315 315 314 313 313 312 311 312 313 313 314 316 318 320 323 325 326 327 329 329 327 326 325 325 325 325 324 322 322 321 321 321 322 321 321 320 319 318 318 319 320 320 321 322 322 321 319 318 317 315 313 312 313 315 316 316 314 314 313 311 311 314
315 314 314 314 314 315 314 314 314 313 313 312 312 312 312 313 313 313 313 313 316 315 314 314 314 313 312 311 310 310 311 312 313 314 315 316 318 320 322 322 323 325 325 324 323 323 324 323 321 321 320 319 320 321 322 322 321 320 319 317 317 317 316 317 318 319 319 318 317 315 312 311 310 309 308 309 311 313 315 314 312 310 309 310 313
314 313 313 313 314 314 314 313 313 313 312 312 312 312 312 312 312 312 312 313 315 315 314 313 313 312 312 310 309 309 310 311 313 313 314 315 316 317 318 318 319 319 320 321 321 321 322 321 320 319 319 320 321 321 322 321 319 318 316 314 314 313 311 311 313 313 313 312 311 310 308 307 305 304 305 307 309 310 311 310 308 307 308 309 311
314 313 313 313 313 313 314 313 313 313 312 312 311 312 312 311 311 311 312 313 315 314 313 313 312 312 311 309 308 308 309 310 312 313 314 315 315 315 316 316 316 316 317 318 319 319 320 320 320 319 319 321 321 321 320 319 317 315 313 312 311 309 307 308 309 309 308 307 307 305 303 301 300 299 301 303 305 307 307 307 307 307 308 307 307
313 313 313 313 313 313 313 313 313 312 312 311 311 311 311 311 311 311 311 312 314 313 312 312 312 311 311 309 307 306 307 309 311 313 313 314 314 314 314 315 315 316 316 316 317 317 317 318 319 319 320 320 320 320 319 318 316 314 312 311 309 307 306 307 306 305 303 302 301 300 299 299 300 300 300 300 301 302 304 305 307 306 306 305 305
313 313 313 313 312 313 313 313 312 312 312 311 311 311 310 310 311 311 311 312 313 313 312 312 311 311 311 310 307 306 306 308 310 312 313 313 313 313 313 314 314 315 315 315 315 315 315 315 317 318 319 319 319 319 318 317 316 314 313 311 309 307 306 306 306 305 305 304 302 301 302 303 303 303 303 301 300 299 300 302 304 304 305 305 304
313 313 313 312 312 313 313 313 312 312 311 311 311 311 310 310 311 311 311 312 313 313 312 311 311 311 310 309 307 306 306 306 308 311 312 312 313 313 313 313 313 314 314 313 313 313 314 314 315 316 318 318 318 319 318 316 315 315 313 312 311 310 310 310 311 310 308 306 305 304 305 306 305 304 303 302 302 301 300 299 300 302 303 303 304
313 313 313 312 312 313 314 313 312 312 311 311 310 311 311 311 310 311 312 312 312 313 311 311 311 311 310 309 307 305 305 306 307 309 311 311 312 313 313 313 313 313 313 312 311 311 312 313 313 314 316 317 317 318 318 317 316 316 315 313 313 313 313 312 310 308 306 306 306 306 306 306 305 304 303 302 302 303 303 300 299 301 301 300 301
313 313 312 311 313 314 314 313 311 310 311 311 310 310 311 311 310 310 312 313 312 312 311 311 311 311 310 309 308 306 306 305 306 309 311 311 312 313 313 313 313 314 314 312 310 310 311 312 312 313 314 316 316 317 317 316 316 315 314 313 313 312 311 309 307 306 306 307 307 306 306 305 304 304 304 303 302 302 302 301 302 303 302 300 299
313 313 312 312 313 314 314 313 311 310 310 310 310 310 311 311 311 311 311 311 311 312 311 311 311 311 310 309 308 307 306 305 306 308 310 311 312 312 312 313 314 315 314 312 310 310 310 311 311 312 313 314 315 316 315 315 314 313 313 312 311 310 309 308 307 307 307 307 306 306 305 304 304 304 303 302 302 302 302 302 303 303 301 301 301
313 312 311 311 313 313 313 312 311 310 310 309 309 309 310 310 312 312 312 310 311 311 312 311 311 311 310 308 308 308 307 305 306 308 310 311 311 312 313 313 314 314 313 311 310 310 310 310 310 311 311 312 312 313 313 312 312 311 310 309 308 308 308 307 307 307 307 307 306 305 304 304 304 304 303 302 302 302 302 302 303 302 301 301 302
313 311 311 311 311 311 312 312 311 310 310 309 309 309 309 309 311 312 312 311 311 311 311 311 310 310 309 308 309 308 307 306 306 308 310 310 311 312 313 313 312 312 311 310 309 308 307 307 308 308 309 310 311 311 310 309 308 307 306 306 307 307 307 307 307 307 306 306 305 303 303 303 302 302 302 303 303 302 301 302 303 303 302 301 301
311 310 310 310 310 310 310 311 310 310 310 310 309 309 309 310 311 312 312 311 311 311 311 311 310 309 308 308 308 309 308 307 307 308 309 309 310 311 311 311 311 310 309 308 307 306 305 305 305 305 305 307 307 307 306 305 305 305 306 307 307 308 307 307 307 306 306 305 304 303 303 303 303 303 304 305 304 303 302 302 303 303 302 301 302
310 310 310 309 310 310 310 310 310 310 309 309 309 310 310 310 311 313 312 311 311 311 311 311 310 308 307 307 308 309 309 308 308 308 309 309 309 309 309 309 309 308 308 306 305 303 302 302 302 301 301 302 303 303 304 304 305 306 307 307 307 307 307 306 306 305 305 304 304 304 304 304 304 305 305 304 303 303 303 302 302 303 302 302 302
309 310 310 310 309 309 310 310 310 309 309 309 309 310 310 310 310 312 312 312 311 311 311 311 310 308 306 307 308 309 309 309 309 309 309 308 308 308 307 307 307 307 306 304 302 301 301 300 300 299 300 301 303 303 304 305 306 306 305 305 305 305 305 305 305 305 305 304 304 304 304 304 304 304 305 304 302 303 303 302 302 303 303 302 301
310 310 310 310 310 309 309 310 309 309 309 309 309 310 310 309 310 311 312 312 311 311 311 311 309 307 306 307 308 309 310 309 309 309 309 308 308 308 307 307 307 306 303 300 299 301 301 300 299 299 300 302 303 304 305 306 305 304 303 303 304 304 304 304 305 305 305 305 305 304 305 305 304 303 304 304 302 302 303 303 303 303 303 302 301
310 310 309 309 309 309 309 309 309 309 309 309 310 310 308 308 308 310 312 312 310 310 310 310 308 306 305 306 307 309 309 309 309 308 308 308 308 307 306 306 304 301 300 300 302 303 302 301 301 301 301 302 303 304 306 306 305 304 303 303 304 305 305 305 305 304 304 304 305 304 303 304 305 304 304 304 303 302 303 303 303 303 303 302 301
310 310 310 309 309 309 309 309 309 309 309 309 310 310 308 307 308 309 311 311 310 310 310 310 307 305 304 304 306 308 309 308 308 307 307 307 307 307 306 304 301 299 300 303 305 305 304 303 303 302 303 304 305 305 306 306 305 305 304 304 305 305 305 305 305 304 303 304 304 304 303 304 305 305 304 303 303 303 303 303 303 303 302 302 301
310 310 310 310 309 308 308 308 309 309 309 309 310 310 310 308 307 307 308 309 309 309 309 309 308 305 303 304 305 307 308 307 306 306 306 306 306 306 306 303 300 300 303 305 306 307 307 306 306 306 306 306 307 307 306 306 306 306 305 305 305 304 303 304 305 304 305 305 304 304 304 304 305 304 304 303 303 303 304 303 303 302 302 302 301
310 310 310 310 309 308 308 307 307 308 309 310 310 310 310 309 307 306 306 306 307 307 307 308 308 307 304 303 304 306 306 306 305 305 305 305 305 306 305 303 300 302 305 306 306 307 308 307 308 308 308 308 307 307 307 307 307 306 306 306 306 305 304 305 305 305 305 305 304 304 304 304 304 304 304 304 304 303 303 303 303 302 302 301 300
310 310 310 310 309 308 307 306 306 308 310 311 310 310 309 308 306 305 306 306 306 306 306 306 307 307 306 304 303 303 305 306 305 304 304 304 304 304 303 302 301 302 304 305 306 306 306 307 308 307 307 307 307 306 307 307 307 306 306 307 306 306 305 306 306 305 305 305 305 305 304 304 303 304 304 304 304 303 303 303 303 302 301 301 300
310 310 310 309 309 309 308 307 306 308 310 311 310 310 309 307 305 304 305 305 305 305 306 306 306 306 306 304 302 302 304 305 303 301 301 302 301 301 301 301 301 302 303 304 305 305 306 307 308 307 307 307 307 306 306 306 306 306 307 307 307 307 306 306 306 306 306 305 305 305 305 304 304 304 305 304 304 304 304 303 302 301 301 300 299
310 310 310 309 308 309 309 308 307 309 310 311 310 310 310 308 306 305 305 305 304 304 305 305 305 304 303 302 300 301 303 305 303 300 301 301 300 300 302 303 303 303 304 305 305 306 307 307 307 307 307 307 307 307 307 307 307 307 307 307 307 307 307 306 306 306 306 306 305 305 305 305 305 305 304 305 304 304 304 303 301 300 300 299 299
310 310 310 310 309 309 309 308 308 308 310 310 310 310 310 309 308 306 305 305 305 304 305 305 304 303 301 299 299 301 303 303 303 302 301 302 301 301 302 304 304 304 305 305 305 306 307 307 307 307 308 308 308 308 307 307 308 308 307 307 307 307 307 306 306 306 306 305 304 304 303 304 305 305 305 305 304 304 303 302 301 300 300 299 298
310 310 310 310 310 309 309 308 308 308 309 309 309 310 309 309 309 307 306 304 304 304 304 304 302 301 300 299 299 301 302 302 302 302 301 302 302 301 301 302 303 304 305 306 306 306 307 307 308 308 308 308 308 308 308 308 308 308 307 307 307 307 307 306 306 306 306 306 305 304 303 303 304 305 305 304 303 303 302 301 300 300 299 298 297
310 310 310 309 310 309 308 309 308 308 308 309 309 310 309 309 309 309 308 306 303 303 304 303 302 301 301 300 300 301 302 302 302 302 302 302 301 301 301 301 302 303 304 305 306 307 307 308 308 308 308 308 308 308 308 308 307 307 307 307 307 307 307 306 306 306 306 305 305 304 304 304 303 304 304 303 302 301 301 300 300 299 298 297 296
311 310 310 309 309 309 308 309 308 308 309 308 308 309 309 309 309 309 309 308 305 304 304 304 303 302 302 302 301 301 301 302 302 302 302 302 302 302 302 302 302 303 304 305 306 307 307 308 308 308 308 308 308 307 307 307 307 307 307 307 307 306 306 306 305 305 305 304 304 304 303 303 303 303 302 302 301 300 299 299 298 297 297 296 295
311 311 310 310 310 309 309 309 308 308 309 308 308 308 308 308 309 309 309 309 308 306 305 305 305 304 303 303 302 302 301 302 303 303 303 303 303 303 303 303 303 304 304 305 306 306 307 308 309 308 308 308 308 308 307 307 307 307 306 306 306 306 306 305 304 304 303 303 303 303 303 302 302 302 301 300 299 299 298 297 297 296 296 295 294
311 311 311 310 310 309 309 309 308 308 309 309 308 308 307 308 308 309 309 309 309 308 307 306 306 306 304 304 304 303 302 303 303 304 304 304 304 304 304 304 304 305 305 305 306 307 307 308 308 308 308 308 308 308 308 307 307 307 306 306 306 305 305 305 304 303 303 303 302 302 302 301 301 301 300 298 298 297 297 296 296 295 295 294 293
311 311 311 310 310 310 309 309 308 308 308 308 308 308 307 307 307 308 309 309 308 308 308 308 307 307 306 305 304 304 303 304 304 304 304 305 305 305 305 305 305 305 306 306 306 307 307 308 308 308 308 308 308 308 307 307 307 306 306 306 305 305 305 304 303 303 303 302 302 301 301 301 300 299 298 297 297 297 296 295 295 294 294 293 292
312 312 311 310 310 310 310 309 309 309 308 308 309 308 308 307 307 308 308 308 308 308 308 308 308 308 306 305 305 304 304 304 305 305 305 305 305 305 306 306 306 306 307 307 307 307 308 308 308 308 308 308 308 308 307 307 307 306 306 306 305 304 304 304 303 302 302 302 301 300 300 300 299 298 296 296 296 295 295 294 294 293 292 292 291
312 312 311 311 310 310 310 310 310 309 309 308 308 309 308 308 308 308 308 308 308 308 307 307 308 308 307 306 305 305 305 305 305 305 305 305 306 306 306 307 307 307 307 307 308 308 308 308 308 308 308 308 308 308 307 307 307 306 306 305 305 304 304 303 302 302 302 301 300 299 298 298 297 296 296 295 295 294 294 293 293 292 291 291 290
312 312 311 311 311 311 311 310 310 310 309 309 309 309 309 309 308 308 308 308 308 308 307 307 307 307 308 307 306 305 305 306 306 306 306 306 306 306 307 307 308 309 308 308 308 308 308 308 308 308 308 308 308 308 308 307 307 307 306 305 304 304 303 302 302 301 301 300 299 298 297 297 296 296 295 295 294 294 293 292 291 291 290 290 290
312 312 311 311 311 311 311 311 310 310 309 309 309 309 309 309 309 309 309 309 308 308 307 307 307 307 307 307 307 306 306 306 306 306 306 306 306 307 307 308 308 309 309 309 309 308 309 308 308 308 308 308 308 308 308 308 307 307 306 305 304 303 303 302 301 301 301 300 299 298 297 296 296 295 294 294 293 292 292 292 291 291 290 290 289
312 312 312 312 312 311 311 311 311 310 310 310 310 310 310 310 310 309 309 309 309 308 308 307 307 307 307 307 307 307 307 306 306 307 307 307 307 307 307 307 307 308 309 309 309 309 309 308 308 308 308 308 308 308 308 308 307 307 306 305 304 303 302 302 302 301 301 300 299 298 297 296 295 294 293 293 292 292 292 291 290 290 289 289 289
312 312 312 312 312 312 312 312 312 311 311 311 310 311 311 310 310 310 310 310 310 309 309 308 307 307 307 307 307 307 307 307 307 307 307 307 307 307 307 307 307 307 308 309 309 309 309 308 308 308 308 308 308 308 308 308 308 307 306 305 304 303 302 302 302 301 300 299 298 297 296 295 294 294 293 292 292 291 291 290 290 289 289 289 289
313 312 312 312 312 312 312 312 312 312 312 312 311 311 312 311 311 311 311 311 310 310 310 309 308 307 307 307 307 307 307 307 307 307 307 308 307 307 307 307 307 307 307 308 309 309 309 308 308 308 308 308 308 308 308 308 308 307 306 305 304 303 302 302 302 301 300 298 297 296 295 294 293 293 292 292 291 291 291 290 290 290 289 289 288
Wind_Speed
9 8 6 4 3 4 4 5 6 6 6 6 7 7 8 8 8 10 10 9 10 11 13 14 15 16 17 18 18 17 18 20 21 22 23 25 27 28 26 27 32 36 35 32 31 30 27 26 28 27 25 24 22 21 19 18 17 17 15 14 12 11 10 9 6 3 3 2 0 3 3 2 3 2 4 5 2 1 1 2 3 4 3 3 3
11 8 5 2 2 3 4 5 6 6 6 7 8 7 7 7 7 8 9 10 10 10 11 13 14 14 15 17 17 17 18 19 19 20 22 24 27 28 26 27 32 34 34 33 32 30 27 28 30 28 26 25 24 21 20 19 18 17 16 14 12 12 10 8 5 1 1 2 3 2 1 1 4 4 4 4 3 1 0 0 1 4 5 5 5
5 3 2 2 2 3 4 5 6 7 7 8 8 8 7 7 7 7 7 8 10 10 10 12 13 13 14 16 16 17 19 18 19 21 23 24 27 29 29 29 31 32 32 33 33 31 29 29 30 29 27 25 25 23 21 20 20 18 17 14 12 10 8 7 5 2 2 1 1 2 2 1 3 4 4 4 3 2 2 3 3 1 4 7 5
4 4 5 4 3 3 4 5 6 7 8 8 8 8 8 8 7 7 7 7 8 8 9 11 12 12 14 15 15 16 17 16 16 18 21 23 26 30 31 29 30 31 31 31 31 30 30 30 30 29 28 26 26 24 22 21 20 18 15 14 12 9 6 7 7 6 5 4 3 2 0 2 3 4 5 5 5 3 3 4 4 5 3 8 5
5 4 4 3 2 4 5 5 7 8 8 9 9 8 8 8 8 7 7 7 7 8 9 10 11 12 13 14 15 15 15 15 13 13 17 22 25 27 29 29 30 32 32 32 30 29 29 28 28 29 27 24 23 25 24 22 20 18 15 15 14 10 8 9 8 6 5 4 3 1 1 1 2 5 6 4 5 3 4 6 6 7 7 6 3
3 3 4 5 5 5 6 7 8 8 8 9 8 8 7 7 7 7 7 7 7 8 9 10 11 12 13 13 13 14 14 13 13 11 13 20 24 25 27 30 32 32 33 32 31 31 29 26 25 25 22 17 13 14 16 16 17 17 16 15 14 10 9 10 8 7 7 7 6 3 2 3 4 6 6 3 3 5 6 7 6 6 9 6 4
3 5 4 5 7 6 6 7 8 8 8 8 8 7 6 6 6 6 7 8 8 8 9 11 12 12 12 12 13 14 14 13 12 11 10 14 20 24 26 28 30 32 34 32 29 29 30 27 24 21 20 20 14 10 10 12 12 14 16 15 13 10 9 9 8 7 7 6 6 4 5 7 7 7 5 3 5 8 8 8 5 6 8 7 4
6 5 3 5 7 7 5 5 6 7 7 7 6 5 6 6 6 6 7 8 8 9 10 11 12 13 13 13 14 15 14 14 14 13 12 11 14 18 22 25 28 29 32 32 28 27 28 27 27 22 20 22 20 13 13 16 15 13 14 14 13 10 9 8 6 6 6 5 5 6 8 9 9 8 6 4 8 10 8 7 4 4 5 5 4
6 5 5 6 7 7 6 5 4 5 7 6 5 4 5 4 5 6 7 7 7 8 9 11 11 12 13 13 14 14 13 13 15 16 17 17 15 16 18 21 25 26 27 29 28 27 25 23 25 26 21 19 20 17 18 19 17 14 13 12 12 10 9 8 7 6 6 5 6 8 10 10 10 10 9 7 9 9 6 4 2 4 3 4 6
7 6 7 7 8 8 6 5 4 5 7 6 4 4 5 3 4 6 7 6 5 6 8 10 11 11 11 12 13 14 14 15 17 16 18 20 19 19 18 18 22 23 24 26 25 25 25 21 20 24 21 18 19 20 20 19 15 13 12 11 10 9 9 8 6 6 7 7 8 9 11 14 13 12 12 10 8 8 5 2 2 3 3 3 5
8 6 6 7 8 8 6 6 6 6 7 7 6 6 6 5 6 7 8 5 3 5 7 9 9 10 10 10 11 13 14 15 17 17 17 18 20 22 21 19 22 24 25 27 25 23 24 21 19 20 21 20 21 22 20 17 14 13 11 10 10 10 10 8 6 5 6 7 5 6 11 15 13 13 13 10 8 7 5 3 2 3 3 4 3
6 6 7 8 8 8 7 7 7 7 8 8 7 6 7 8 8 9 9 5 3 4 6 7 8 8 9 10 10 10 12 13 14 16 16 16 18 22 22 21 22 24 25 26 25 24 25 23 21 21 22 22 21 21 18 15 14 14 13 12 12 11 10 9 7 4 3 7 13 15 16 16 15 14 11 9 8 6 4 3 3 4 4 6 4
6 6 8 9 8 7 7 7 8 7 8 8 7 6 7 7 9 9 9 8 5 3 3 5 6 7 8 9 9 9 11 12 12 13 14 15 16 18 20 20 21 23 26 26 25 27 26 26 25 24 23 21 20 20 20 19 17 16 15 14 12 11 10 8 7 3 3 11 17 18 16 15 14 13 9 8 9 6 4 4 4 3 3 4 5
8 8 9 9 7 6 6 7 8 8 8 7 6 6 6 7 9 9 9 9 5 0 2 3 5 6 7 7 7 8 10 11 10 11 11 12 13 12 13 15 17 20 22 24 28 30 29 27 26 25 23 22 21 21 21 22 21 18 16 14 13 12 10 9 9 6 6 12 16 16 15 13 12 11 9 9 9 7 5 4 2 2 1 2 2
9 10 10 8 5 5 6 8 8 8 8 6 6 7 7 7 8 8 9 9 4 2 1 3 4 5 6 6 6 5 7 9 9 10 10 9 7 3 5 7 10 14 18 22 26 30 31 29 27 27 25 23 22 21 20 22 23 20 18 16 15 13 12 11 10 9 10 11 12 13 13 11 10 10 8 8 8 9 8 5 2 1 4 7 3
10 10 9 7 6 7 8 7 7 7 6 6 8 8 6 6 7 8 9 8 3 2 1 1 2 4 6 6 6 5 4 5 7 9 10 11 10 7 8 9 9 13 19 21 21 25 28 28 27 28 28 26 24 21 20 22 22 21 20 19 17 15 15 13 11 9 10 11 11 12 12 11 11 10 9 8 7 8 8 5 3 1 7 7 5
10 10 9 8 8 8 8 8 6 5 5 5 7 6 4 4 7 8 10 8 4 4 1 1 2 4 5 6 7 5 3 2 5 7 9 11 13 12 12 13 13 14 18 20 20 21 24 25 26 28 30 28 24 22 22 21 20 20 21 21 20 18 17 14 12 11 11 11 13 13 13 12 12 10 10 10 8 8 9 7 5 2 6 7 10
11 11 10 8 9 9 9 8 6 4 4 4 5 3 2 3 8 9 9 7 2 3 2 2 2 2 4 6 7 5 3 1 2 6 8 10 11 12 12 13 14 14 15 18 21 21 21 22 25 28 27 24 23 23 22 20 19 21 22 23 22 21 19 16 15 15 14 14 15 15 15 14 13 11 10 8 7 7 9 9 7 6 8 10 8
12 11 9 9 9 10 9 6 4 3 4 4 2 0 2 3 8 8 6 5 3 3 5 4 2 2 4 6 6 5 4 3 2 5 7 9 10 11 10 11 13 13 13 15 17 18 19 20 22 25 24 21 22 23 22 20 20 21 22 22 22 20 18 17 17 18 18 17 16 16 16 15 13 12 11 9 8 7 8 8 8 8 9 9 9
11 10 9 10 10 7 7 7 5 4 4 5 3 2 4 4 6 6 6 7 7 6 5 3 1 2 3 4 5 4 4 5 4 4 7 7 8 9 7 7 10 13 14 14 14 16 17 17 18 19 20 20 21 23 22 19 19 20 21 21 21 20 19 18 18 17 16 16 16 16 16 15 14 12 11 10 10 9 8 8 8 8 8 8 10
11 10 10 11 10 7 8 7 6 5 3 5 4 4 5 4 4 5 8 10 7 2 3 2 2 3 3 3 4 4 4 5 6 5 6 6 7 8 8 7 9 13 14 14 14 16 17 17 17 15 16 18 20 22 22 19 18 20 21 20 20 20 20 18 16 15 15 15 15 14 14 13 12 11 10 9 10 10 8 7 7 7 7 6 7
10 9 11 12 9 10 11 8 7 5 5 6 6 5 6 5 6 7 9 10 6 2 3 4 5 4 3 3 3 4 3 4 6 6 6 6 6 8 9 9 11 13 13 12 13 17 18 18 18 16 16 18 19 21 23 21 19 20 21 20 19 18 18 18 16 15 15 15 13 12 11 11 11 10 8 7 8 8 6 6 7 8 7 5 4
9 11 13 11 8 13 13 10 7 6 6 7 7 6 6 7 7 7 8 8 5 4 4 6 7 6 5 4 2 3 3 3 6 7 7 6 5 7 9 10 11 12 12 13 16 18 19 19 17 16 16 17 18 20 21 20 19 21 21 21 20 18 17 16 15 14 14 12 12 12 11 11 11 10 8 7 7 6 5 6 7 7 7 5 3
10 12 10 7 11 13 11 9 7 7 8 8 6 6 6 7 8 8 6 5 5 6 7 10 11 8 6 4 3 3 3 2 5 7 7 6 4 5 7 9 12 14 14 17 18 18 19 19 17 16 16 17 18 19 20 20 21 22 21 20 19 18 16 14 13 13 13 12 12 11 10 11 11 10 9 7 6 6 5 5 5 4 4 4 3
14 12 7 7 9 11 11 10 10 9 9 10 8 6 6 7 9 10 9 8 8 9 10 13 12 8 5 4 4 3 2 3 6 7 8 7 5 4 7 11 15 17 18 18 19 18 18 17 16 16 16 17 18 19 20 20 21 20 20 20 18 15 13 12 12 13 12 12 11 10 9 9 9 8 8 7 6 6 5 3 2 2 3 4 4
14 10 7 8 9 9 9 10 13 13 12 11 11 11 12 12 11 10 10 10 10 10 12 12 10 7 5 5 6 4 2 4 9 11 11 11 9 9 13 16 17 18 19 20 20 20 18 17 17 17 16 16 17 18 19 20 20 20 21 19 15 11 12 13 13 13 12 12 11 10 9 7 6 6 8 7 5 4 4 4 2 2 3 5 6
10 8 7 8 8 9 10 11 12 14 13 11 11 15 18 18 14 12 11 11 10 9 11 12 9 7 7 6 6 6 4 5 10 14 15 16 15 16 19 20 19 20 21 22 21 19 18 18 18 17 17 17 18 19 21 21 21 19 17 12 8 8 12 13 12 12 13 12 11 11 11 8 5 6 7 6 5 4 3 4 3 3 3 5 7
9 9 9 8 9 10 13 14 14 13 13 13 11 12 15 18 17 14 13 12 10 10 11 12 9 8 11 9 8 8 7 6 9 15 17 17 17 18 19 21 21 21 21 21 20 20 19 19 17 17 19 22 22 23 22 21 18 14 11 8 7 10 13 13 11 11 11 10 11 11 10 8 6 5 6 6 5 4 4 3 2 2 2 4 6
9 8 8 9 11 14 15 14 14 13 13 13 11 7 7 10 15 15 14 13 12 11 11 9 7 8 12 12 10 11 10 9 10 13 15 15 14 14 15 18 20 21 20 21 21 21 20 18 18 19 21 22 22 20 18 14 11 9 9 9 10 11 13 12 10 10 9 9 9 9 8 8 7 5 7 8 6 4 4 2 1 1 2 3 3
10 9 9 11 14 16 14 12 14 14 13 12 14 10 5 6 10 12 14 15 14 13 10 5 3 5 12 12 9 10 11 11 11 13 14 14 13 11 13 15 17 19 20 21 20 19 18 17 18 19 20 19 17 14 12 10 10 10 11 10 11 12 12 11 11 9 8 7 8 8 8 9 8 6 6 7 6 4 5 4 2 4 4 3 2
12 11 12 14 15 13 13 13 13 14 13 12 13 15 11 8 7 9 12 15 15 14 12 7 2 4 11 11 7 8 13 15 13 13 14 13 10 10 12 13 14 19 22 21 18 16 15 15 17 18 18 17 15 13 12 11 13 14 12 10 11 12 11 12 13 11 8 7 6 6 6 6 7 7 6 5 4 2 5 5 3 4 4 2 2
13 12 14 15 14 11 11 12 11 11 12 13 13 15 16 13 10 10 12 15 15 14 13 10 4 4 8 8 7 10 15 17 15 14 14 11 10 11 12 12 15 21 22 17 13 14 15 16 17 18 18 18 17 15 14 14 15 15 13 10 12 12 10 11 13 11 8 7 6 7 7 6 6 6 6 4 2 4 6 5 3 4 4 2 1
13 12 14 15 13 13 12 11 12 12 13 14 14 14 15 15 14 13 13 14 14 14 13 11 8 5 7 7 7 10 14 17 18 16 13 11 10 11 11 14 18 21 20 15 12 12 11 13 17 19 18 18 17 16 17 16 15 16 15 13 14 13 11 11 13 10 7 7 6 7 9 8 7 7 6 5 7 8 6 4 3 4 3 2 2
14 14 16 15 12 14 14 12 13 14 13 14 15 14 12 13 16 17 16 14 13 13 13 12 11 8 7 7 7 9 11 14 17 17 14 11 11 9 10 14 18 21 19 14 11 10 9 12 15 15 14 15 17 15 14 15 15 16 16 15 14 14 14 14 14 12 10 8 7 7 10 10 9 8 8 8 8 8 7 5 4 5 3 1 2
16 16 17 17 11 12 13 13 15 15 14 15 14 12 11 11 17 18 16 15 14 14 13 14 13 11 10 9 8 9 11 13 16 16 14 12 11 10 11 14 16 18 17 14 12 11 12 12 12 12 9 12 16 13 11 12 12 11 11 11 12 14 16 15 15 15 15 14 13 13 14 14 13 13 11 8 5 7 8 7 5 5 2 1 2
16 15 16 17 14 11 12 13 15 15 15 15 13 11 11 11 16 18 15 14 14 13 12 14 15 13 12 11 11 10 12 14 16 16 15 13 13 13 13 14 14 15 14 13 13 13 14 10 12 14 10 11 15 13 11 12 12 11 12 12 13 15 16 15 15 16 17 17 16 15 14 13 13 12 11 8 9 10 10 7 5 4 3 3 4
17 16 15 16 16 13 12 13 14 14 14 14 11 11 12 11 13 16 15 14 14 14 13 15 16 15 13 13 13 13 14 15 16 15 14 14 14 14 14 13 12 13 13 13 12 12 12 9 12 14 12 13 15 14 13 13 14 15 16 15 13 13 13 12 12 12 10 8 8 9 10 11 12 13 13 12 12 10 8 6 4 4 4 5 6
17 17 16 16 17 15 13 13 14 14 13 13 12 12 13 12 11 13 15 16 16 15 15 17 18 18 18 16 16 16 17 16 16 15 15 14 15 16 17 15 13 12 12 13 12 11 12 12 13 14 13 13 16 16 14 14 15 15 15 14 13 13 10 8 6 5 4 3 2 3 5 7 10 13 14 13 11 9 7 6 5 5 5 5 4
17 17 17 15 17 17 14 13 14 14 13 13 13 13 13 12 12 12 13 16 17 16 17 19 20 19 19 20 20 20 19 18 17 16 16 16 16 17 18 17 15 12 11 12 12 13 15 15 12 13 12 11 12 12 12 12 11 10 8 8 9 10 10 11 10 9 9 10 9 8 7 7 6 6 9 9 9 9 8 7 7 7 6 4 5
18 18 17 15 16 18 15 13 14 14 14 14 13 13 13 13 12 12 12 14 17 17 18 21 22 20 20 23 25 24 22 20 19 17 16 17 18 17 18 18 17 16 15 15 15 15 18 18 15 13 14 13 11 9 8 6 5 5 5 5 5 6 7 8 8 7 8 9 9 8 9 8 7 6 7 7 7 7 7 7 7 6 6 7 8
19 19 19 19 17 15 14 13 14 14 15 15 15 14 14 13 13 13 12 13 15 18 19 20 22 23 24 25 27 27 25 21 20 19 18 18 19 19 18 19 20 19 19 19 19 19 21 24 20 15 13 13 12 9 7 7 6 6 5 5 5 5 5 5 4 3 4 6 8 8 8 8 8 8 7 7 8 8 8 8 7 6 7 8 8
20 19 21 23 22 18 16 16 15 14 14 15 15 15 15 14 14 14 14 13 14 15 18 19 20 24 28 28 28 28 27 23 21 21 20 19 19 20 20 21 22 21 20 21 23 23 23 22 20 16 12 11 11 11 10 11 11 8 5 4 4 6 8 8 7 6 7 7 9 10 9 9 9 9 9 8 9 9 8 8 8 8 8 8 9
20 20 23 26 26 24 22 19 16 16 16 16 16 16 15 15 15 15 14 14 14 14 15 16 17 22 29 31 29 29 29 25 22 22 22 21 21 21 21 22 23 22 22 23 25 25 22 16 15 15 13 12 12 12 13 13 12 10 8 8 7 8 10 11 11 11 11 11 12 13 13 12 11 11 10 9 8 8 8 9 9 9 10 10 10
20 19 24 27 27 27 26 23 19 18 19 17 18 18 17 15 15 15 15 16 16 15 15 16 15 18 28 34 33 32 31 28 24 24 24 23 22 23 24 24 24 24 24 24 25 25 22 18 16 16 15 13 12 12 13 14 13 11 11 11 11 10 11 12 12 13 14 14 14 15 15 15 15 13 11 9 9 9 9 10 10 11 11 11 11
21 18 22 27 26 24 24 24 21 19 20 19 18 20 20 18 16 16 15 16 17 16 16 16 15 15 24 35 38 35 32 30 27 25 25 25 25 25 25 26 27 27 27 27 27 26 23 20 18 18 17 16 14 13 14 14 13 12 12 13 14 14 14 14 14 14 15 16 16 16 16 16 15 14 12 12 11 10 10 10 10 11 11 10 10
23 19 20 25 25 22 22 23 22 21 21 20 18 18 19 19 19 17 16 16 17 17 17 18 17 15 19 31 38 36 32 30 28 26 26 26 26 27 28 28 30 31 31 30 27 25 23 20 18 17 16 16 16 16 16 16 16 15 15 15 16 17 18 18 17 16 16 17 17 15 14 13 13 13 13 13 12 12 11 12 12 11 11 11 11
24 22 21 23 24 24 23 23 22 21 20 19 19 19 18 17 18 18 18 17 17 17 17 18 19 17 17 24 33 36 33 30 28 27 27 27 27 27 28 28 29 31 34 32 28 26 24 23 20 18 17 16 17 18 19 18 18 18 18 18 18 18 19 19 19 19 19 20 19 16 14 14 14 14 14 15 15 14 14 14 13 13 13 12 12
23 22 21 21 23 25 24 23 22 21 21 20 20 20 19 17 18 19 19 19 19 18 18 18 19 20 19 20 26 31 34 32 29 27 26 27 28 28 28 27 24 23 27 30 29 27 25 24 22 21 20 19 19 19 19 20 19 19 20 20 20 21 21 21 22 22 22 22 21 19 18 17 17 16 14 13 13 13 12 12 12 12 11 11 11
22 20 20 22 22 22 22 21 20 21 22 22 21 20 19 19 19 20 20 20 20 20 20 19 20 20 21 21 22 25 29 32 32 29 27 27 27 28 29 30 27 23 21 23 25 26 25 24 24 24 24 23 21 19 20 21 21 21 21 23 23 24 24 24 24 24 23 23 22 21 21 20 19 18 16 15 14 15 15 14 13 13 12 12 12
24 22 22 22 22 21 20 20 20 21 22 23 22 21 21 21 21 20 20 21 21 21 22 22 22 21 22 22 23 23 25 28 29 29 29 29 29 28 29 31 32 30 26 22 22 24 25 26 26 25 25 25 24 21 22 23 24 23 24 26 27 26 27 27 26 25 24 23 23 22 21 20 18 17 17 16 16 15 15 14 14 13 13 12 12
26 25 22 22 23 24 23 22 22 22 23 23 23 22 21 22 22 22 22 22 22 22 23 23 23 23 23 23 24 25 26 26 27 27 27 29 30 31 30 31 33 34 32 27 23 22 24 27 28 27 25 25 24 24 24 26 26 26 27 29 29 29 29 29 28 27 26 24 23 21 20 19 18 18 17 16 15 14 13 12 12 12 12 12 12
Wind_Direction
231 228 223 228 250 275 294 301 297 297 301 307 312 315 321 327 326 322 318 310 301 290 281 276 272 271 270 269 269 268 264 257 247 240 237 238 237 233 230 229 229 230 230 232 233 232 231 236 238 235 231 229 230 230 227 224 224 224 225 226 222 218 217 219 233 232 200 231 116 157 182 166 158 200 188 179 200 271 251 274 255 258 260 219 175
220 208 195 204 251 284 298 303 299 298 298 303 309 312 322 331 333 333 331 327 320 307 299 295 287 281 280 276 272 272 269 263 253 242 236 235 235 233 230 228 228 229 229 231 232 232 233 235 236 236 232 228 228 228 225 221 219 219 221 226 224 215 210 214 226 328 39 331 324 302 287 190 158 151 155 167 167 165 206 80 202 234 224 185 137
227 212 204 225 256 273 291 301 302 300 297 299 304 310 321 329 331 334 335 334 332 326 321 315 302 293 292 287 281 277 273 268 258 246 239 233 227 226 229 230 229 228 229 231 231 231 234 235 234 234 231 227 226 224 221 219 216 214 215 221 227 221 208 207 212 211 204 215 346 340 317 251 171 149 145 148 139 119 75 67 56 355 191 167 128
258 251 235 225 239 257 272 294 304 303 299 297 301 307 314 321 327 335 339 342 344 340 338 333 322 314 309 301 295 290 286 280 268 255 248 242 232 226 227 230 233 232 231 232 233 233 236 234 232 232 233 229 224 220 217 217 214 210 205 204 214 219 196 184 196 202 189 150 100 46 256 176 150 153 159 144 131 124 74 85 71 31 97 140 118
222 251 265 270 279 281 286 296 298 296 295 294 297 302 308 316 322 334 346 352 355 353 350 345 337 332 325 314 308 305 303 297 286 264 244 240 241 236 230 231 233 232 232 233 234 237 242 243 234 230 233 233 224 216 212 211 209 203 195 191 196 198 174 163 171 179 177 177 184 186 153 168 130 138 152 144 133 127 72 88 89 34 43 91 70
205 247 273 290 294 295 302 303 301 303 303 300 299 300 306 316 321 335 352 358 357 356 356 352 344 335 328 324 321 317 314 311 307 290 249 231 232 233 232 233 234 235 236 236 236 236 243 254 246 228 225 234 239 232 222 217 210 198 191 191 191 188 178 176 180 187 195 210 215 200 144 178 171 139 140 147 134 107 70 73 81 32 21 21 1
234 253 267 288 292 294 300 305 311 316 312 303 300 301 309 322 331 342 351 354 358 360 358 354 349 342 338 336 329 315 305 304 306 302 276 241 231 227 225 230 235 239 240 238 239 238 237 246 249 233 221 226 239 255 247 241 230 202 188 191 191 183 178 180 187 194 198 202 200 186 161 164 167 156 156 156 111 86 63 54 48 20 10 4 4
219 251 282 289 293 297 301 308 314 315 310 302 301 313 327 330 335 344 345 347 355 2 2 356 350 348 347 342 332 321 309 298 291 289 284 272 255 242 235 235 234 235 237 238 240 239 235 241 246 239 227 222 223 219 210 222 232 212 191 193 192 184 174 172 178 193 203 202 190 182 173 167 168 165 158 127 89 76 62 51 29 350 359 29 60
194 222 255 270 281 284 285 293 299 299 297 294 303 333 339 333 342 347 337 336 348 356 358 356 352 352 350 344 338 338 333 315 300 292 284 280 276 262 253 247 236 229 233 236 234 231 230 237 240 234 226 218 214 204 194 204 216 210 199 198 194 185 171 164 172 182 189 200 209 197 170 150 148 139 118 99 86 77 72 67 18 332 1 73 85
187 213 242 262 277 280 281 284 284 280 281 285 298 308 302 309 349 345 328 323 339 347 346 347 350 352 350 346 344 348 348 334 320 307 290 282 280 273 267 258 243 234 232 230 224 220 221 227 231 225 214 199 192 189 190 198 203 201 202 198 188 178 162 159 172 182 187 198 215 205 160 135 132 127 114 109 103 89 81 63 14 4 20 73 94
191 210 237 256 269 278 279 275 276 278 280 285 290 293 302 323 336 330 322 322 350 1 351 343 345 349 348 348 348 351 354 344 331 320 303 286 276 271 269 261 248 240 236 231 221 209 208 212 213 206 194 181 174 174 183 194 195 194 190 179 171 164 154 153 156 171 191 182 144 119 121 119 116 116 116 117 114 98 78 48 46 56 19 3 65
199 209 235 247 254 265 271 268 269 278 287 289 291 303 323 331 326 319 317 323 356 14 360 344 341 346 347 348 348 351 356 350 338 330 317 298 279 265 260 259 251 241 237 232 216 200 195 194 188 180 174 175 172 167 168 172 172 170 161 153 153 150 146 144 137 137 169 140 111 95 100 106 100 103 112 113 114 113 90 64 72 81 33 6 37
209 224 242 250 249 252 259 265 269 273 280 285 294 309 316 316 317 316 312 313 327 360 7 350 339 340 343 347 346 350 0 1 352 344 331 314 295 269 253 254 252 240 234 225 202 186 182 175 167 162 162 168 168 163 162 158 150 146 144 142 139 136 135 131 127 126 131 131 120 105 106 117 110 106 111 107 111 116 91 74 69 63 41 14 40
206 225 240 245 245 247 250 260 268 270 277 287 303 315 319 320 318 312 300 295 295 25 53 11 347 335 336 341 338 344 0 9 9 4 355 336 314 282 250 248 245 228 217 206 186 174 171 168 161 155 155 159 158 155 153 145 137 134 135 133 125 123 126 126 128 139 141 137 131 119 122 135 130 123 129 131 132 133 114 94 77 70 59 333 28
210 224 233 232 234 246 252 258 263 271 285 306 318 314 320 327 316 305 297 290 266 169 354 338 335 324 321 326 326 337 1 14 22 26 28 20 353 300 204 211 220 197 179 176 172 166 165 165 159 152 149 150 149 148 144 136 133 133 128 120 116 116 118 118 124 136 139 138 136 129 128 135 135 133 143 152 156 157 145 121 97 73 309 293 239
220 228 229 221 225 239 244 253 270 288 297 306 313 316 330 334 315 301 291 280 237 150 279 279 291 305 311 318 320 327 354 19 35 43 49 54 54 70 105 119 139 150 152 157 159 157 156 156 151 147 146 145 144 148 148 141 134 130 122 114 114 113 106 103 110 122 126 123 122 123 122 123 126 125 127 131 138 155 150 112 77 323 316 315 147
226 231 227 215 216 232 242 248 264 294 305 308 317 331 357 334 303 287 275 262 204 144 148 212 258 300 311 309 306 310 323 12 56 62 64 69 71 73 83 91 97 111 130 142 146 147 150 150 148 146 144 143 143 145 148 143 132 124 120 116 115 112 106 106 111 112 114 116 118 120 118 118 119 119 121 120 115 131 131 93 62 26 354 21 104
223 228 232 224 214 218 231 246 257 279 302 313 321 344 29 319 294 284 278 274 218 149 202 232 246 295 305 296 290 290 287 281 92 86 82 80 80 81 86 91 90 92 107 126 134 136 137 142 147 147 144 142 141 140 142 141 132 125 125 122 118 115 113 117 119 116 116 118 118 118 116 112 109 107 111 113 110 120 117 91 68 53 32 30 62
221 223 231 240 235 217 205 214 229 246 273 293 305 105 127 288 299 301 285 274 271 235 226 212 198 265 291 294 293 287 266 241 172 120 108 99 94 93 94 101 103 101 102 114 126 130 132 138 147 149 146 143 140 139 140 137 131 129 129 124 120 122 126 128 126 121 119 117 115 114 112 106 100 96 93 91 92 98 102 103 94 69 52 34 21
223 228 230 242 250 224 183 183 194 213 258 288 288 184 177 239 289 306 282 261 255 236 215 187 178 251 276 290 298 292 261 241 218 155 130 121 113 106 101 109 119 118 113 115 124 130 133 138 144 149 149 146 141 139 140 136 130 129 130 127 127 130 131 127 122 118 117 116 114 110 105 99 93 88 83 78 79 78 77 96 104 81 65 51 30
224 233 237 244 240 200 163 165 175 186 234 278 266 202 168 196 246 261 260 263 264 216 158 171 229 233 244 271 292 299 269 242 228 186 142 134 140 134 123 125 137 134 122 117 122 127 130 133 136 142 149 147 142 140 140 138 133 133 135 136 134 133 131 128 127 127 126 121 114 107 103 103 100 94 85 76 74 70 60 68 88 82 73 69 50
221 227 243 250 223 170 155 163 182 195 217 244 246 212 174 192 228 241 249 257 261 209 170 222 233 220 220 243 280 308 286 240 226 201 147 130 152 158 146 142 145 138 126 122 127 129 130 129 129 134 144 147 143 140 139 140 140 140 140 137 135 135 136 136 136 136 131 125 121 120 118 120 119 110 96 83 77 72 55 53 68 64 53 56 64
214 228 240 237 180 151 155 171 186 197 202 214 228 220 196 197 205 225 250 257 243 211 208 232 234 217 211 219 248 302 296 233 213 193 151 125 148 172 170 167 163 154 144 141 140 136 133 131 129 132 138 141 140 138 137 138 139 141 141 139 138 139 139 140 144 145 141 137 137 137 133 130 127 116 105 94 84 78 65 54 61 55 37 32 41
220 233 230 190 151 151 163 173 177 183 187 195 215 227 218 205 196 204 227 242 231 217 213 226 230 219 203 200 211 268 288 219 193 176 146 121 130 178 187 181 176 172 160 151 148 144 139 135 134 135 136 135 135 134 132 133 136 139 140 139 139 141 144 152 155 147 139 135 131 127 124 123 121 119 117 106 85 77 65 49 54 53 31 13 349
228 231 203 170 168 172 172 170 171 180 183 185 196 213 219 221 213 203 199 205 219 225 225 229 228 212 190 193 196 219 256 186 160 145 128 113 108 150 159 154 158 160 154 148 146 141 135 132 132 134 133 130 130 129 128 130 135 137 137 135 137 142 147 149 143 134 130 133 129 121 116 116 120 128 131 117 96 84 66 50 67 50 18 357 323
222 215 191 194 203 202 200 187 176 178 182 186 197 207 211 218 217 201 194 200 212 225 235 240 232 203 186 195 188 183 198 166 144 127 115 109 110 131 142 142 143 143 140 138 135 129 125 124 126 128 130 131 131 129 129 132 136 137 138 137 139 143 143 140 141 142 141 141 138 134 130 127 128 136 135 130 127 108 64 55 70 42 11 354 332
200 187 189 204 207 209 226 226 201 190 190 195 211 217 212 209 202 188 192 203 207 218 236 245 236 194 172 183 183 167 165 166 145 126 114 112 118 128 135 134 134 135 134 132 131 128 125 124 123 124 128 131 131 129 130 133 134 136 139 141 137 140 144 147 148 146 142 143 145 143 141 139 133 131 136 146 164 158 105 62 40 24 12 347 337
180 174 184 200 213 216 224 226 221 217 209 200 215 236 222 203 191 186 194 202 201 208 229 242 236 188 166 177 185 165 161 180 161 134 122 120 123 127 131 133 135 138 139 136 134 130 126 122 120 123 126 126 127 128 129 130 132 135 137 133 126 132 139 139 135 132 134 140 142 138 143 157 165 166 167 160 153 156 139 84 25 1 356 327 324
170 176 182 197 222 234 231 215 207 220 224 200 198 246 254 195 181 185 192 193 196 206 219 237 239 193 174 178 182 171 167 176 168 146 135 136 138 136 138 141 142 143 145 142 135 128 122 119 120 125 128 128 128 130 132 137 143 144 137 132 129 130 133 131 128 132 134 137 145 149 162 174 170 174 187 170 144 157 175 132 48 295 283 292 297
169 189 202 212 223 232 234 218 201 211 228 208 187 198 217 169 164 178 185 186 194 206 214 236 269 188 174 173 179 182 177 173 167 154 144 148 153 152 151 151 150 149 147 140 131 125 121 122 126 133 138 139 140 147 155 158 154 138 129 134 137 138 144 146 142 144 147 151 165 174 180 180 172 173 192 172 134 153 202 190 201 243 251 275 295
174 191 211 226 228 222 226 231 216 206 220 222 196 182 179 170 161 172 181 185 192 203 212 228 254 164 170 176 182 180 176 176 174 161 152 154 155 153 158 162 157 150 144 136 132 134 136 139 145 150 155 160 167 176 174 164 156 148 147 160 161 157 168 167 151 149 162 174 183 181 173 184 188 179 177 160 127 184 219 201 201 231 238 264 307
180 194 213 225 220 206 216 240 237 213 214 226 211 183 170 161 153 158 174 184 191 199 208 217 213 152 164 180 181 167 169 176 177 167 160 158 146 141 154 164 157 151 149 149 156 161 160 163 168 172 178 183 186 183 173 165 164 161 164 178 175 170 182 173 150 144 162 181 193 186 177 199 213 182 157 148 192 239 228 200 209 250 244 241 297
186 203 225 228 205 187 200 232 245 233 222 226 226 208 185 168 159 164 173 181 189 198 205 209 205 173 157 166 169 167 171 176 176 171 167 164 151 143 151 160 161 162 166 175 189 189 187 191 190 189 192 190 182 177 174 173 175 175 174 178 179 179 184 174 159 159 183 204 207 191 187 206 216 191 180 206 224 231 227 208 228 259 248 234 325
192 208 232 238 204 176 186 219 240 240 231 229 230 226 212 188 173 172 175 177 184 194 200 204 208 196 175 171 173 176 181 183 180 177 175 172 168 164 161 165 171 178 184 196 209 219 240 232 203 190 191 182 171 174 182 178 179 184 180 177 182 184 181 178 179 187 203 217 219 203 200 208 207 198 208 220 219 224 227 219 236 255 249 264 328
193 206 229 241 219 177 180 211 232 235 234 234 229 226 223 196 171 170 180 185 187 194 196 198 205 205 196 196 195 189 190 188 183 182 182 179 176 175 171 173 180 189 201 218 226 238 262 251 195 178 191 178 162 168 186 181 176 183 182 182 188 183 178 183 190 190 190 197 207 209 213 218 214 205 205 209 219 234 233 223 230 241 230 256 298
197 207 220 227 220 196 186 207 226 228 228 233 230 221 218 191 163 167 184 188 188 195 193 190 198 203 202 203 205 198 190 184 180 182 182 178 175 172 169 175 189 201 215 233 239 248 267 249 180 173 196 185 164 170 191 187 179 184 191 199 201 193 191 199 203 197 194 200 205 207 209 212 208 200 198 209 228 233 226 216 220 232 235 245 255
199 208 210 203 202 205 205 211 225 228 223 225 228 225 221 202 173 172 179 179 182 188 180 176 184 187 187 194 199 192 186 182 181 183 183 179 179 177 173 181 199 209 220 235 242 252 265 241 184 180 196 190 176 180 192 192 191 194 197 202 206 203 200 196 190 187 192 195 198 202 206 210 215 215 215 216 217 215 207 200 209 237 253 247 249
204 215 218 199 191 202 215 216 221 225 218 214 220 226 224 214 194 183 177 174 179 182 173 171 179 180 179 187 193 188 184 182 183 187 190 189 189 191 191 199 212 218 223 232 235 241 253 240 203 189 197 194 184 185 194 202 206 205 199 199 205 212 220 223 206 197 212 227 242 247 240 238 235 224 211 204 201 202 206 215 231 247 249 241 256
205 217 224 206 187 191 206 215 216 216 212 211 216 223 224 216 206 200 187 175 177 180 174 172 179 183 182 184 187 185 183 184 186 191 196 199 202 205 207 214 228 238 243 246 243 241 249 249 222 199 205 208 194 193 203 209 210 206 202 200 198 198 213 228 232 235 245 250 250 247 243 249 249 213 188 185 190 195 207 225 232 227 227 244 279
203 211 218 210 192 187 195 210 214 208 205 210 218 224 226 219 211 210 201 182 178 184 181 175 179 185 185 185 187 186 184 187 191 194 199 204 209 214 216 221 229 236 243 252 252 248 254 258 243 215 209 209 199 196 207 213 215 218 222 225 211 191 195 210 213 215 226 227 218 210 213 219 218 195 181 184 189 192 203 217 218 219 244 273 277
206 207 210 213 209 199 197 213 223 214 202 205 215 223 227 223 215 215 216 201 188 188 187 182 181 184 186 191 194 192 188 190 194 196 199 204 208 213 218 223 227 231 236 244 247 247 253 256 246 223 206 200 194 195 209 224 235 236 223 218 220 209 205 215 214 203 204 199 191 191 196 202 206 204 198 198 204 207 212 219 228 247 266 268 261
210 204 199 203 209 209 209 217 228 227 212 204 210 220 225 222 217 216 219 217 207 199 195 192 188 186 187 194 201 198 193 193 197 197 200 205 207 211 218 224 228 233 237 240 244 249 252 244 227 212 206 201 192 193 207 218 225 228 222 225 234 220 212 216 222 223 221 214 205 201 199 201 206 206 202 205 214 218 223 232 241 248 249 246 253
214 205 194 195 201 207 211 216 221 227 223 210 205 215 225 224 219 216 218 221 223 218 209 205 202 193 189 194 201 201 196 196 199 200 202 205 207 211 219 225 228 233 238 240 244 251 253 238 211 204 210 209 199 201 209 214 215 213 210 216 226 222 212 209 211 215 215 210 207 208 208 207 204 200 202 216 228 230 231 234 233 235 241 248 256
213 206 194 194 198 201 207 212 216 223 228 219 203 204 217 226 225 220 216 218 226 229 222 218 218 203 191 192 197 198 196 196 200 202 205 209 211 213 218 222 225 230 235 238 243 249 251 240 221 212 211 210 209 213 215 214 212 205 201 205 213 216 210 203 205 213 214 208 207 212 213 210 209 208 208 215 222 222 226 230 233 238 245 249 251
214 207 190 190 195 198 203 209 213 220 228 225 206 197 202 214 224 227 221 215 219 227 227 227 229 214 194 191 194 197 197 197 200 203 206 211 215 218 220 221 221 222 226 232 238 243 243 235 222 213 209 209 215 221 221 217 210 203 201 205 211 217 217 211 208 213 213 209 211 215 213 213 219 222 217 216 220 224 227 228 229 233 237 238 240
215 212 191 185 190 196 200 206 212 218 224 225 219 209 204 204 212 225 228 221 217 219 222 226 233 230 204 193 194 199 200 199 201 205 208 212 217 221 224 225 223 220 221 225 230 235 236 232 221 210 205 207 215 224 227 221 213 209 210 211 213 219 221 216 211 212 212 209 211 215 212 211 217 218 212 209 211 214 218 222 227 233 237 239 245
211 211 201 189 188 193 199 204 210 216 219 222 225 225 219 210 209 217 226 227 224 220 218 220 227 233 220 200 197 201 204 204 205 208 211 215 221 225 228 231 228 220 216 218 223 227 230 229 222 212 208 213 221 226 224 216 210 211 214 213 213 218 220 214 210 213 213 209 206 205 202 200 203 206 208 212 216 222 229 236 241 245 247 251 256
210 210 207 199 193 193 198 204 207 209 213 219 224 225 222 218 215 215 219 224 226 223 221 220 222 227 228 216 205 203 205 208 211 214 215 218 223 227 232 240 241 227 213 213 218 222 223 222 219 215 214 218 225 226 221 214 210 212 215 215 215 216 216 212 211 214 216 213 209 207 206 205 205 206 212 218 221 223 224 224 225 231 238 243 249
215 215 211 207 203 202 204 205 204 203 208 216 222 223 220 220 220 217 215 218 221 221 221 223 222 223 226 226 219 211 207 208 211 216 220 222 225 227 230 237 244 244 232 221 220 221 220 218 217 215 214 217 223 225 221 216 213 212 215 220 221 218 216 216 216 217 217 216 214 213 212 213 212 212 215 217 216 216 218 222 228 236 240 242 245
215 219 214 207 203 206 211 212 209 206 207 211 217 220 218 218 221 222 219 218 218 218 218 221 222 223 224 226 226 223 218 214 213 215 217 220 224 227 228 230 234 240 243 236 227 223 221 219 216 214 213 216 220 222 221 219 217 215 219 225 226 221 217 218 220 219 218 217 216 214 213 213 213 213 215 218 221 226 233 239 243 246 244 242 245
209 218 217 205 197 201 211 217 215 211 207 208 212 218 219 217 217 220 222 222 221 219 218 218 220 222 224 225 225 226 225 224 223 221 219 218 219 223 226 226 226 229 235 237 234 228 223 219 216 214 212 213 216 219 221 220 218 218 224 229 228 223 220 220 221 220 218 217 215 213 210 209 208 207 209 212 216 221 226 230 230 232 233 235 240